Time,TemperatureF,DewpointF,PressureIn,WindDirection,WindDirectionDegrees,WindSpeedMPH,WindSpeedGustMPH,Humidity,HourlyPrecipIn,Conditions,Clouds,dailyrainin,SolarRadiationWatts/m^2,SoftwareType,DateUTC
2013-12-25 00:02:00,18.3,12.0,30.50,SE,137,0.0,0.0,76,0.00,,,0.00,0,weatherlink.com 1.10,2013-12-25 05:02:00,
2013-12-25 00:17:00,18.4,11.0,30.51,ESE,107,0.0,0.0,73,0.00,,,0.00,0,weatherlink.com 1.10,2013-12-25 05:17:00,
2013-12-25 00:32:00,18.5,12.0,30.51,SE,145,0.0,0.0,74,0.00,,,0.00,0,weatherlink.com 1.10,2013-12-25 05:32:00,
2013-12-25 00:47:00,18.5,11.0,30.51,SSW,200,0.0,0.0,73,0.00,,,0.00,0,weatherlink.com 1.10,2013-12-25 05:47:00,
2013-12-25 01:02:00,18.5,11.0,30.50,East,88,0.0,0.0,73,0.00,,,0.00,0,weatherlink.com 1.10,2013-12-25 06:02:00,
2013-12-25 01:17:00,18.5,11.0,30.50,SE,139,0.0,0.0,73,0.00,,,0.00,0,weatherlink.com 1.10,2013-12-25 06:17:00,
2013-12-25 01:33:00,18.5,12.0,30.50,South,182,0.0,0.0,74,0.00,,,0.00,0,weatherlink.com 1.10,2013-12-25 06:33:00,
2013-12-25 01:48:00,18.4,11.0,30.50,South,178,0.0,0.0,74,0.00,,,0.00,0,weatherlink.com 1.10,2013-12-25 06:48:00,
2013-12-25 02:03:00,18.2,11.0,30.50,South,178,0.0,0.0,74,0.00,,,0.00,0,weatherlink.com 1.10,2013-12-25 07:03:00,
2013-12-25 02:33:00,17.9,12.0,30.49,SE,131,0.0,0.0,77,0.00,,,0.00,0,weatherlink.com 1.10,2013-12-25 07:33:00,
2013-12-25 02:48:00,18.0,12.0,30.48,SSE,161,0.0,0.0,77,0.00,,,0.00,0,weatherlink.com 1.10,2013-12-25 07:48:00,
2013-12-25 03:03:00,18.2,12.0,30.48,SSE,161,0.0,0.0,77,0.00,,,0.00,0,weatherlink.com 1.10,2013-12-25 08:03:00,
2013-12-25 03:18:00,18.4,12.0,30.48,South,188,0.0,0.0,76,0.00,,,0.00,0,weatherlink.com 1.10,2013-12-25 08:18:00,
2013-12-25 03:33:00,18.6,12.0,30.48,SW,217,0.0,0.0,75,0.00,,,0.00,0,weatherlink.com 1.10,2013-12-25 08:33:00,
2013-12-25 03:48:00,18.9,12.0,30.48,SSW,192,0.0,0.0,75,0.00,,,0.00,0,weatherlink.com 1.10,2013-12-25 08:48:00,
2013-12-25 04:03:00,19.3,13.0,30.48,South,174,0.0,0.0,75,0.00,,,0.00,0,weatherlink.com 1.10,2013-12-25 09:03:00,
2013-12-25 04:18:00,19.5,13.0,30.47,SSE,167,0.0,0.0,75,0.00,,,0.00,0,weatherlink.com 1.10,2013-12-25 09:18:00,
2013-12-25 04:33:00,19.7,12.0,30.47,SSW,193,0.0,0.0,73,0.00,,,0.00,0,weatherlink.com 1.10,2013-12-25 09:33:00,
2013-12-25 04:49:00,19.7,13.0,30.47,SSW,203,0.0,0.0,74,0.00,,,0.00,0,weatherlink.com 1.10,2013-12-25 09:49:00,
2013-12-25 05:04:00,19.9,13.0,30.47,SSE,148,0.0,0.0,74,0.00,,,0.00,0,weatherlink.com 1.10,2013-12-25 10:04:00,
2013-12-25 05:19:00,20.1,13.0,30.46,SSE,165,0.0,0.0,74,0.00,,,0.00,0,weatherlink.com 1.10,2013-12-25 10:19:00,
2013-12-25 05:34:00,20.3,13.0,30.45,South,174,0.0,0.0,74,0.00,,,0.00,0,weatherlink.com 1.10,2013-12-25 10:34:00,
2013-12-25 05:49:00,20.4,13.0,30.44,South,184,0.0,0.0,74,0.00,,,0.00,0,weatherlink.com 1.10,2013-12-25 10:49:00,
2013-12-25 06:04:00,20.5,13.0,30.45,WSW,238,0.0,0.0,72,0.00,,,0.00,0,weatherlink.com 1.10,2013-12-25 11:04:00,
2013-12-25 06:19:00,20.7,13.0,30.44,SE,131,0.0,0.0,72,0.00,,,0.00,0,weatherlink.com 1.10,2013-12-25 11:19:00,
2013-12-25 06:34:00,20.8,13.0,30.45,SSW,213,0.0,0.0,72,0.00,,,0.00,0,weatherlink.com 1.10,2013-12-25 11:34:00,
2013-12-25 06:49:00,21.0,13.0,30.45,SSW,209,0.0,0.0,71,0.00,,,0.00,0,weatherlink.com 1.10,2013-12-25 11:49:00,
2013-12-25 07:04:00,21.2,13.0,30.44,WSW,248,0.0,0.0,71,0.00,,,0.00,0,weatherlink.com 1.10,2013-12-25 12:04:00,
2013-12-25 07:19:00,21.3,13.0,30.43,SW,229,0.0,0.0,70,0.00,,,0.00,0,weatherlink.com 1.10,2013-12-25 12:19:00,
2013-12-25 07:34:00,21.3,13.0,30.43,South,180,0.0,0.0,70,0.00,,,0.00,0,weatherlink.com 1.10,2013-12-25 12:34:00,
2013-12-25 07:49:00,21.3,13.0,30.43,SW,214,0.0,0.0,70,0.00,,,0.00,0,weatherlink.com 1.10,2013-12-25 12:49:00,
2013-12-25 08:04:00,21.5,13.0,30.42,SSE,168,0.0,0.0,70,0.00,,,0.00,0,weatherlink.com 1.10,2013-12-25 13:04:00,
2013-12-25 08:19:00,21.6,13.0,30.42,SW,221,0.0,0.0,70,0.00,,,0.00,0,weatherlink.com 1.10,2013-12-25 13:19:00,
2013-12-25 08:34:00,21.8,13.0,30.42,SSE,161,0.0,0.0,69,0.00,,,0.00,7,weatherlink.com 1.10,2013-12-25 13:34:00,
2013-12-25 08:49:00,21.9,13.0,30.43,SW,215,0.0,0.0,69,0.00,,,0.00,5,weatherlink.com 1.10,2013-12-25 13:49:00,
2013-12-25 09:04:00,22.0,13.0,30.43,South,189,0.0,0.0,69,0.00,,,0.00,18,weatherlink.com 1.10,2013-12-25 14:04:00,
2013-12-25 09:19:00,22.2,13.0,30.42,SSW,213,0.0,0.0,69,0.00,,,0.00,19,weatherlink.com 1.10,2013-12-25 14:19:00,
2013-12-25 09:34:00,22.4,14.0,30.43,South,190,0.0,0.0,69,0.00,,,0.00,23,weatherlink.com 1.10,2013-12-25 14:34:00,
2013-12-25 09:49:00,22.7,14.0,30.43,South,180,0.0,0.0,69,0.00,,,0.00,23,weatherlink.com 1.10,2013-12-25 14:49:00,
2013-12-25 10:04:00,23.0,14.0,30.41,SSW,196,0.0,0.0,68,0.00,,,0.00,35,weatherlink.com 1.10,2013-12-25 15:04:00,
2013-12-25 10:19:00,23.4,14.0,30.41,SSW,213,0.0,0.0,68,0.00,,,0.00,63,weatherlink.com 1.10,2013-12-25 15:19:00,
2013-12-25 10:35:00,23.7,14.0,30.41,SW,219,0.0,0.0,67,0.00,,,0.00,54,weatherlink.com 1.10,2013-12-25 15:35:00,
2013-12-25 10:50:00,23.9,14.0,30.40,WSW,258,0.0,0.0,66,0.00,,,0.00,76,weatherlink.com 1.10,2013-12-25 15:50:00,
2013-12-25 11:05:00,24.3,15.0,30.39,WSW,247,0.0,0.0,67,0.00,,,0.00,74,weatherlink.com 1.10,2013-12-25 16:05:00,
2013-12-25 11:20:00,24.8,15.0,30.39,WSW,239,0.0,0.0,65,0.00,,,0.00,77,weatherlink.com 1.10,2013-12-25 16:20:00,
2013-12-25 11:35:00,25.1,15.0,30.38,SSW,207,0.0,0.0,65,0.00,,,0.00,81,weatherlink.com 1.10,2013-12-25 16:35:00,
2013-12-25 11:50:00,25.3,15.0,30.38,WSW,242,0.0,0.0,65,0.00,,,0.00,70,weatherlink.com 1.10,2013-12-25 16:50:00,
2013-12-25 12:05:00,25.7,15.0,30.37,SW,223,0.0,0.0,65,0.00,,,0.00,74,weatherlink.com 1.10,2013-12-25 17:05:00,
2013-12-25 12:20:00,26.0,16.0,30.37,West,281,0.0,0.0,65,0.00,,,0.00,53,weatherlink.com 1.10,2013-12-25 17:20:00,
2013-12-25 12:35:00,26.2,16.0,30.36,WSW,250,0.0,0.0,66,0.00,,,0.00,58,weatherlink.com 1.10,2013-12-25 17:35:00,
2013-12-25 12:50:00,26.3,17.0,30.35,West,270,0.0,0.0,67,0.00,,,0.00,49,weatherlink.com 1.10,2013-12-25 17:50:00,
2013-12-25 13:05:00,26.3,17.0,30.34,SW,215,0.0,0.0,67,0.00,,,0.00,77,weatherlink.com 1.10,2013-12-25 18:05:00,
2013-12-25 13:20:00,26.5,17.0,30.34,SSE,161,0.0,0.0,68,0.00,,,0.00,97,weatherlink.com 1.10,2013-12-25 18:20:00,
2013-12-25 13:35:00,26.7,17.0,30.33,SW,218,0.0,0.0,68,0.00,,,0.00,69,weatherlink.com 1.10,2013-12-25 18:35:00,
2013-12-25 13:50:00,26.6,18.0,30.33,WSW,239,0.0,0.0,69,0.00,,,0.00,42,weatherlink.com 1.10,2013-12-25 18:50:00,
2013-12-25 14:05:00,26.6,18.0,30.32,WSW,246,0.0,0.0,69,0.00,,,0.00,53,weatherlink.com 1.10,2013-12-25 19:05:00,
2013-12-25 14:20:00,26.8,18.0,30.32,SW,223,0.0,0.0,69,0.00,,,0.00,67,weatherlink.com 1.10,2013-12-25 19:20:00,
2013-12-25 14:35:00,26.9,18.0,30.31,SSW,195,0.0,0.0,70,0.00,,,0.00,81,weatherlink.com 1.10,2013-12-25 19:35:00,
2013-12-25 14:50:00,27.2,19.0,30.30,West,267,0.0,0.0,71,0.00,,,0.00,69,weatherlink.com 1.10,2013-12-25 19:50:00,
2013-12-25 15:05:00,27.3,19.0,30.30,WSW,241,0.0,0.0,71,0.00,,,0.00,44,weatherlink.com 1.10,2013-12-25 20:05:00,
2013-12-25 15:20:00,27.5,20.0,30.30,SSW,198,0.0,0.0,72,0.00,,,0.00,47,weatherlink.com 1.10,2013-12-25 20:20:00,
2013-12-25 15:35:00,27.7,19.0,30.30,West,275,0.0,0.0,71,0.00,,,0.00,35,weatherlink.com 1.10,2013-12-25 20:35:00,
2013-12-25 15:50:00,27.8,20.0,30.30,SW,236,0.0,0.0,72,0.00,,,0.00,33,weatherlink.com 1.10,2013-12-25 20:50:00,
2013-12-25 16:05:00,27.9,20.0,30.30,SW,226,0.0,0.0,72,0.00,,,0.00,30,weatherlink.com 1.10,2013-12-25 21:05:00,
2013-12-25 16:20:00,28.0,20.0,30.30,WSW,248,0.0,0.0,72,0.00,,,0.00,23,weatherlink.com 1.10,2013-12-25 21:20:00,
2013-12-25 16:35:00,28.1,20.0,30.30,West,261,0.0,0.0,73,0.00,,,0.00,14,weatherlink.com 1.10,2013-12-25 21:35:00,
2013-12-25 16:50:00,28.1,21.0,30.30,West,267,0.0,0.0,74,0.00,,,0.00,12,weatherlink.com 1.10,2013-12-25 21:50:00,
2013-12-25 17:05:00,28.1,21.0,30.30,SW,227,0.0,0.0,75,0.00,,,0.00,7,weatherlink.com 1.10,2013-12-25 22:05:00,
2013-12-25 17:20:00,28.1,21.0,30.30,SW,225,0.0,0.0,76,0.00,,,0.00,0,weatherlink.com 1.10,2013-12-25 22:20:00,
2013-12-25 17:35:00,28.0,22.0,30.30,SW,226,0.0,0.0,77,0.00,,,0.00,0,weatherlink.com 1.10,2013-12-25 22:35:00,
2013-12-25 17:50:00,28.0,22.0,30.30,West,265,0.0,0.0,78,0.00,,,0.00,0,weatherlink.com 1.10,2013-12-25 22:50:00,
2013-12-25 18:05:00,28.1,22.0,30.30,WSW,250,0.0,0.0,79,0.00,,,0.00,0,weatherlink.com 1.10,2013-12-25 23:05:00,
2013-12-25 18:20:00,28.1,22.0,30.30,WSW,247,0.0,0.0,79,0.00,,,0.00,0,weatherlink.com 1.10,2013-12-25 23:20:00,
2013-12-25 18:35:00,28.2,22.0,30.30,WSW,248,0.0,0.0,79,0.00,,,0.00,0,weatherlink.com 1.10,2013-12-25 23:35:00,
2013-12-25 18:50:00,28.3,23.0,30.30,SW,225,0.0,0.0,80,0.00,,,0.00,0,weatherlink.com 1.10,2013-12-25 23:50:00,
2013-12-25 19:05:00,28.3,23.0,30.30,WSW,244,0.0,0.0,80,0.00,,,0.00,0,weatherlink.com 1.10,2013-12-26 00:05:00,
2013-12-25 19:20:00,28.5,23.0,30.30,West,270,0.0,0.0,80,0.00,,,0.00,0,weatherlink.com 1.10,2013-12-26 00:20:00,
2013-12-25 19:35:00,28.6,23.0,30.30,SW,236,0.0,0.0,80,0.00,,,0.00,0,weatherlink.com 1.10,2013-12-26 00:35:00,
2013-12-25 19:50:00,28.7,23.0,30.30,SW,236,0.0,0.0,79,0.00,,,0.00,0,weatherlink.com 1.10,2013-12-26 00:50:00,
2013-12-25 20:05:00,28.7,23.0,30.30,SW,235,0.0,0.0,79,0.00,,,0.00,0,weatherlink.com 1.10,2013-12-26 01:05:00,
2013-12-25 20:20:00,28.8,23.0,30.30,WSW,241,0.0,0.0,79,0.00,,,0.00,0,weatherlink.com 1.10,2013-12-26 01:20:00,
2013-12-25 20:35:00,29.0,23.0,30.29,WSW,240,0.0,0.0,78,0.00,,,0.00,0,weatherlink.com 1.10,2013-12-26 01:35:00,
2013-12-25 20:50:00,29.0,23.0,30.29,West,279,0.0,0.0,78,0.00,,,0.00,0,weatherlink.com 1.10,2013-12-26 01:50:00,
2013-12-25 21:06:00,29.0,23.0,30.29,WSW,250,0.0,0.0,78,0.00,,,0.00,0,weatherlink.com 1.10,2013-12-26 02:06:00,
2013-12-25 21:21:00,29.1,23.0,30.29,West,271,0.0,0.0,78,0.00,,,0.00,0,weatherlink.com 1.10,2013-12-26 02:21:00,
2013-12-25 21:36:00,29.4,23.0,30.28,SW,234,0.0,0.0,78,0.00,,,0.00,0,weatherlink.com 1.10,2013-12-26 02:36:00,
2013-12-25 21:51:00,29.6,24.0,30.28,West,277,0.0,0.0,79,0.00,,,0.00,0,weatherlink.com 1.10,2013-12-26 02:51:00,
2013-12-25 22:06:00,29.7,24.0,30.28,West,273,0.0,0.0,78,0.00,,,0.00,0,weatherlink.com 1.10,2013-12-26 03:06:00,
2013-12-25 22:21:00,29.7,24.0,30.28,West,263,0.0,0.0,79,0.00,,,0.00,0,weatherlink.com 1.10,2013-12-26 03:21:00,
2013-12-25 22:36:00,29.7,24.0,30.28,West,268,0.0,0.0,79,0.00,,,0.00,0,weatherlink.com 1.10,2013-12-26 03:36:00,
2013-12-25 22:51:00,29.8,24.0,30.27,West,261,6.0,13.0,79,0.00,,,0.00,0,weatherlink.com 1.10,2013-12-26 03:51:00,
2013-12-25 23:06:00,29.9,24.0,30.27,West,263,5.0,10.0,80,0.00,,,0.00,0,weatherlink.com 1.10,2013-12-26 04:06:00,
2013-12-25 23:21:00,30.0,25.0,30.27,WSW,242,5.0,9.0,80,0.00,,,0.00,0,weatherlink.com 1.10,2013-12-26 04:21:00,
2013-12-25 23:36:00,30.1,25.0,30.27,SW,222,5.0,11.0,81,0.00,,,0.00,0,weatherlink.com 1.10,2013-12-26 04:36:00,
2013-12-25 23:51:00,30.4,25.0,30.27,West,270,1.0,12.0,81,0.00,,,0.00,0,weatherlink.com 1.10,2013-12-26 04:51:00,